Flag for U.S.A. Weather past 2 weeks in Sheboygan, Wisconsin, U.S.A.

Now
57 °F

Clear.


Feels Like: 56 °F
Forecast: 58 / 73 °F
Wind: 7 mph from Northwest

Location: Sheboygan County Memorial Airport

Current Time: Jul 29, 2014 at 6:21:29 AM

Latest Report: Jul 29, 2014 at 5:53 AM


Visibility: 10 mi

Pressure: 30.00 "Hg

Humidity: 90%

Dew point: 54 °F

Location of SheboyganLocation

Historic Weather in Sheboygan — Graph

°F

Sheboygan temperature yesterday

Maximum temperature yesterday: 66 °F (at 2:53 PM)
Minimum temperature yesterday: 52 °F (at 5:53 AM)
Average temperature yesterday: 59 °F

Past Weeks' High & Low Weather Summary

 TemperatureHumidityPressure
High86 °F (Jul 22, 6:53 PM)97% (Jul 19, 2:53 AM)30.20 "Hg (Jul 19, 2:53 AM)
Low50 °F (Jul 17, 3:53 AM)37% (Jul 17, 3:53 PM)29.67 "Hg (Jul 27, 11:53 AM)
Average65 °F72%29.99 "Hg
* Reported Jul 14 4:53 AM — Jul 29 4:53 AM, Sheboygan, Weather by CustomWeather, © 2014

Note: Actual official high and low records may vary slightly from our data, if they occured in-between our weather recording intervals... More about our weather records

Advertising

Sheboygan weather history for previous 24 hours

 ConditionsComfort  
Time TempWeatherWind HumidityBarometerVisibility
4:53 AM
Jul 29
57 °FClear.5 mph90%30.00 "Hg10 mi
3:53 AM58 °FClear.3 mph90%29.99 "Hg10 mi
2:53 AM61 °FMostly cloudy.3 mph83%30.00 "Hg10 mi
1:53 AM57 °FMostly cloudy.6 mph93%30.01 "Hg10 mi
12:53 AM56 °FOvercast.3 mph93%30.02 "Hg10 mi
11:53 PM
Jul 28
55 °FOvercast.5 mph93%30.03 "Hg10 mi
10:53 PM55 °FPassing clouds.3 mph93%30.03 "Hg10 mi
9:53 PM55 °FClear.3 mph90%30.05 "Hg10 mi
8:53 PM57 °FPassing clouds.No wind83%30.05 "Hg10 mi
7:53 PM61 °FOvercast.6 mph70%30.05 "Hg10 mi
6:53 PM62 °FMostly cloudy.3 mph65%30.06 "Hg10 mi
5:53 PM63 °FPartly sunny.6 mph60%30.06 "Hg10 mi
4:53 PM66 °FPassing clouds.6 mph56%30.06 "Hg10 mi
3:53 PM65 °FPassing clouds.7 mph59%30.08 "Hg10 mi
2:53 PM66 °FScattered clouds.5 mph56%30.08 "Hg10 mi
1:53 PM65 °FSunny.7 mph59%30.08 "Hg10 mi
12:53 PM64 °FPassing clouds.12 mph61%30.09 "Hg10 mi
11:53 AM65 °FOvercast.15 mph54%30.09 "Hg10 mi
10:53 AM64 °FSunny.13 mph56%30.09 "Hg10 mi
9:53 AM62 °FSunny.10 mph60%30.09 "Hg10 mi
8:53 AM58 °FSunny.13 mph67%30.08 "Hg10 mi
7:53 AM56 °FSunny.14 mph70%30.06 "Hg10 mi
6:53 AM53 °FSunny.10 mph74%30.04 "Hg10 mi
Weather by CustomWeather, © 2014

See weather overviewHow to use our weather pages